{"data":{"norad_id":45360,"intl_designator":"2020-019A","name":"STARLINK-1279","alt_names":[],"object_type":"PAYLOAD","status":"ACTIVE","operator":null,"country":"US","launch_date":"2020-03-18","launch_site_code":"AFETR","launch_vehicle":null,"mission":null,"orbit_class":"UNKNOWN","rcs_meters":null,"size_class":null,"mass_kg":null,"dimensions":null,"purposes":["comms"],"wikipedia_slug":null,"has_3d_model":false,"image_url":null,"decayed_at":null,"tle_current":{"epoch":"2026-05-25T02:54:10.929312Z","epoch_age_seconds":57757,"freshness":"FRESH","line1":"1 45360U 20019A   26145.12095983  .00071345  00000+0  52530-3 0  9992","line2":"2 45360  53.0357  83.3079 0008780  65.8479 294.3456 15.72382251342643","mean_motion":15.72382251,"eccentricity":0.000878,"inclination_deg":53.0357,"raan_deg":83.3079,"arg_perigee_deg":65.8479,"mean_anomaly_deg":294.3456,"bstar":0.0005253,"rev_number":34264,"period_min":91.580784448832,"perigee_km":346.18148308952,"apogee_km":357.9997627954,"semimajor_km":6730.2276229425,"source":"CELESTRAK","updated_at":"2026-05-25T13:38:16.386527Z"}}}